Stations météo

réclame
Mon MeteoGroup
F3, Pays-Bas (6239): Température de l'air & dewpoint: 14.11.2018 12:00:00 - 20.11.2018 12:00:00 (CET)F3, Pays-Bas (6239): Vitesse du vent & gusts: 14.11.2018 12:00:00 - 20.11.2018 12:00:00 (CET)F3, Pays-Bas (6239): Direction du vent: 14.11.2018 12:00:00 - 20.11.2018 12:00:00 (CET)F3, Pays-Bas (6239): reduced air pressure: 14.11.2018 12:00:00 - 20.11.2018 12:00:00 (CET)F3, Pays-Bas (6239): visibility: 14.11.2018 12:00:00 - 20.11.2018 12:00:00 (CET)
Date & Time tt [°C] td [°C] ff [km/h] ff [knt] fx [km/h] fx [knt] dd ppp [hPa] vv [km]
20.11.2018 12:00:00 7,7 2,0 67 36 68 37 E 1016,7 24
20.11.2018 11:00:00 6,9 2,8 63 34 72 39 E 1016,8 6
20.11.2018 10:00:00 7,2 3,2 68 37 68 37 E 1017,8 7
20.11.2018 09:00:00 7,6 2,9 59 32 68 37 E 1018,9 21
20.11.2018 08:00:00 7,0 1,7 67 36 68 37 E 1018,3 4,0
20.11.2018 07:00:00 7,8 1,3 63 34 72 39 E 1018,6 29
20.11.2018 06:00:00 7,3 2,7 65 35 68 37 ENE 1020,0 7
20.11.2018 05:00:00 8,1 2,1 63 34 65 35 ENE 1019,8 39
20.11.2018 04:00:00 7,5 1,9 61 33 68 37 E 1021,5 17
20.11.2018 03:00:00 8,4 0,7 65 35 72 39 E 1020,6 29
20.11.2018 02:00:00 6,7 2,4 63 34 68 37 E 1022,9 8
20.11.2018 01:00:00 8,1 3,0 65 35 72 39 E 1021,7 18
20.11.2018 00:00:00 7,8 3,5 63 34 65 35 ENE 1022,3 26
19.11.2018 23:00:00 8,4 3,0 59 32 61 33 ENE 1023,4 11
19.11.2018 22:00:00 7,6 2,8 57 31 65 35 E 1024,0 15
19.11.2018 21:00:00 8,4 2,8 55 30 65 35 E 1024,3 29
19.11.2018 20:00:00 7,9 3,4 55 30 65 35 E 1024,5 3,5
19.11.2018 19:00:00 8,3 2,9 59 32 58 31 E 1024,0 36
19.11.2018 18:00:00 8,0 2,4 55 30 58 31 E 1024,7 15
19.11.2018 17:00:00 7,9 1,0 57 31 61 33 ENE 1024,7 12
19.11.2018 16:00:00 7,1 3,1 50 27 54 29 ENE 1025,4 4,4
19.11.2018 15:00:00 7,9 1,5 55 30 58 31 E 1025,2 39
19.11.2018 14:00:00 7,1 3,1 50 27 61 33 ENE 1026,5 10
19.11.2018 13:00:00 7,6 3,5 50 27 65 35 ENE 1026,8 39
19.11.2018 12:00:00 8,0 1,6 52 28 54 29 E 1027,4 18
19.11.2018 11:00:00 7,3 2,1 50 27 54 29 ENE 1028,5 18
19.11.2018 10:00:00 7,9 2,4 44 24 50 27 ENE 1028,3 18
19.11.2018 09:00:00 8,2 1,4 50 27 54 29 ENE 1027,9 44
19.11.2018 08:00:00 8,2 2,9 44 24 50 27 ENE 1028,8 33
19.11.2018 07:00:00 8,3 2,9 41 22 47 25 ENE 1028,9 46
19.11.2018 06:00:00 8,6 2,7 35 19 47 25 E 1029,2 49
19.11.2018 05:00:00 8,5 2,6 42 23 43 23 ENE 1029,6 44
19.11.2018 04:00:00 9,2 1,9 37 20 40 21 ENE 1029,6 46
19.11.2018 03:00:00 9,1 3,6 31 17 36 19 E 1030,7 42
19.11.2018 02:00:00 9,4 3,0 34 18 36 19 ENE 1030,9 48
19.11.2018 01:00:00 9,6 3,7 39 21 40 21 ENE 1031,6 48
19.11.2018 00:00:00 9,5 2,2 35 19 40 21 E 1032,2 48
18.11.2018 23:00:00 9,7 4,4 34 18 43 23 E 1031,9 38
18.11.2018 22:00:00 9,6 4,3 39 21 47 25 E 1032,0 36
18.11.2018 21:00:00 9,3 3,9 41 22 43 23 E 1032,0 31
18.11.2018 20:00:00 9,2 5,2 42 23 47 25 ENE 1032,1 26
18.11.2018 19:00:00 9,2 5,9 39 21 40 21 E 1032,4 24
18.11.2018 18:00:00 8,9 5,6 37 20 40 21 ENE 1032,4 24
18.11.2018 17:00:00 8,3 3,6 34 18 36 19 ENE 1032,7 34
18.11.2018 16:00:00 8,8 4,3 35 19 40 21 ENE 1033,1 25
18.11.2018 15:00:00 9,3 5,2 34 18 36 19 ENE 1033,3 19
18.11.2018 14:00:00 10,2 4,4 29 16 29 16 ENE 1033,8 28
18.11.2018 13:00:00 10,4 3,0 26 14 25 14 ENE 1034,1 33
18.11.2018 12:00:00 10,4 3,6 26 14 25 14 E 1034,8 30
18.11.2018 11:00:00 10,4 3,3 28 15 25 14 E 1035,3 29
18.11.2018 10:00:00 10,3 3,7 26 14 25 14 E 1035,3 34
18.11.2018 09:00:00 10,3 3,4 26 14 25 14 E 1035,5 37
18.11.2018 08:00:00 10,3 3,6 26 14 29 16 E 1035,5 45
18.11.2018 07:00:00 10,2 3,7 28 15 29 16 ESE 1035,1 39
18.11.2018 06:00:00 10,2 4,9 28 15 32 18 E 1035,0 29
18.11.2018 05:00:00 9,9 5,5 31 17 32 18 E 1035,0 23
18.11.2018 04:00:00 10,0 5,6 34 18 32 18 E 1035,3 19
18.11.2018 03:00:00 10,1 5,9 31 17 32 18 E 1035,4 20
18.11.2018 02:00:00 10,2 6,3 31 17 32 18 E 1035,5 19
18.11.2018 01:00:00 10,3 5,4 31 17 32 18 E 1035,2 22
18.11.2018 00:00:00 10,5 4,7 34 18 32 18 E 1035,4 29
17.11.2018 23:00:00 10,6 5,6 34 18 32 18 E 1035,5 22
17.11.2018 22:00:00 10,4 6,2 31 17 32 18 E 1035,2 19
17.11.2018 21:00:00 10,5 6,0 35 19 40 21 ESE 1035,4 20
17.11.2018 20:00:00 10,6 6,5 42 23 40 21 ESE 1035,5 22
17.11.2018 19:00:00 10,5 6,1 41 22 40 21 ESE 1035,4 23
17.11.2018 18:00:00 10,3 5,8 37 20 36 19 ESE 1035,2 26
17.11.2018 17:00:00 10,4 5,9 35 19 32 18 ESE 1035,0 24
17.11.2018 16:00:00 10,0 5,1 35 19 32 18 ESE 1034,8 20
17.11.2018 15:00:00 9,9 5,4 35 19 40 21 ESE 1034,7 19
17.11.2018 14:00:00 10,0 5,3 41 22 40 21 ESE 1034,6 21
17.11.2018 13:00:00 9,6 5,1 39 21 40 21 ESE 1034,5 19
17.11.2018 12:00:00 9,5 5,3 42 23 43 23 ESE 1034,8 19
17.11.2018 11:00:00 9,3 5,8 42 23 40 21 ESE 1034,7 18
17.11.2018 10:00:00 9,9 6,3 37 20 36 19 ESE 1034,2 19
17.11.2018 09:00:00 10,1 6,6 37 20 36 19 ESE 1033,6 19
17.11.2018 08:00:00 10,3 6,3 35 19 32 18 ESE 1033,1 16
17.11.2018 07:00:00 10,3 6,9 31 17 29 16 ESE 1032,6 13
17.11.2018 06:00:00 10,4 7,1 29 16 29 16 ESE 1032,5 13
17.11.2018 05:00:00 10,7 6,9 31 17 32 18 ESE 1032,4 15
17.11.2018 04:00:00 10,8 7,0 34 18 32 18 ESE 1032,6 14
17.11.2018 03:00:00 10,8 6,9 34 18 32 18 ESE 1032,4 15
17.11.2018 02:00:00 10,9 7,4 29 16 29 16 ESE 1032,2 14
17.11.2018 01:00:00 10,9 7,2 29 16 29 16 ESE 1031,8 13
17.11.2018 00:00:00 11,1 7,8 28 15 29 16 ESE 1031,7 12
16.11.2018 23:00:00 10,9 6,9 28 15 29 16 ESE 1031,3 16
16.11.2018 22:00:00 10,1 6,7 28 15 29 16 SE 1030,9 16
16.11.2018 21:00:00 9,8 6,4 26 14 29 16 ESE 1030,9 17
16.11.2018 20:00:00 8,8 6,1 26 14 29 16 ESE 1030,8 13
16.11.2018 19:00:00 8,6 6,1 22 12 32 18 ESE 1030,7 13
16.11.2018 18:00:00 8,6 6,1 21 11 29 16 ESE 1030,4 10
16.11.2018 17:00:00 8,7 6,6 22 12 22 12 ESE 1029,9 10
16.11.2018 16:00:00 8,8 6,4 26 14 25 14 ESE 1029,6 10
16.11.2018 15:00:00 9,4 6,7 24 13 25 14 SE 1029,5 11
16.11.2018 14:00:00 9,8 6,9 26 14 25 14 SE 1029,1 11
16.11.2018 13:00:00 9,8 7,3 28 15 29 16 SSE 1029,3 10
16.11.2018 12:00:00 10,2 7,9 31 17 29 16 SE 1029,1 11
16.11.2018 11:00:00 10,4 8,4 26 14 25 14 SE 1029,3 9
16.11.2018 10:00:00 10,7 8,8 22 12 22 12 SE 1028,8 8
16.11.2018 09:00:00 11,2 9,2 22 12 22 12 SE 1028,1 14
16.11.2018 08:00:00 11,3 9,1 18 10 25 14 SSE 1027,9 16
16.11.2018 07:00:00 11,5 9,1 22 12 22 12 SSE 1027,1 17
16.11.2018 06:00:00 11,6 9,3 22 12 25 14 SSE 1026,7 14
16.11.2018 05:00:00 11,5 9,4 26 14 25 14 SSE 1026,0 13
16.11.2018 04:00:00 11,5 9,1 28 15 25 14 SSE 1025,6 13
16.11.2018 03:00:00 11,4 9,0 29 16 29 16 SSE 1025,3 11
16.11.2018 02:00:00 11,5 9,2 31 17 29 16 SSE 1025,3 10
16.11.2018 01:00:00 11,8 9,2 34 18 32 18 SSE 1025,0 10
16.11.2018 00:00:00 11,7 9,1 34 18 36 19 SSE 1024,8 11
15.11.2018 23:00:00 11,7 9,0 37 20 36 19 SSE 1024,3 11
15.11.2018 22:00:00 11,9 9,1 39 21 36 19 SSE 1024,1 12
15.11.2018 21:00:00 11,7 9,0 37 20 36 19 SSE 1023,9 11
15.11.2018 20:00:00 11,6 9,4 34 18 32 18 SSE 1023,9 10
15.11.2018 19:00:00 11,6 9,4 31 17 32 18 SSE 1023,7 11
15.11.2018 18:00:00 11,6 9,2 34 18 32 18 SSE 1023,5 13
15.11.2018 17:00:00 11,7 9,4 31 17 29 16 SSE 1023,4 14
15.11.2018 16:00:00 11,6 9,3 29 16 29 16 SSE 1023,5 14
15.11.2018 15:00:00 11,7 9,2 29 16 29 16 SSE 1023,3 16
15.11.2018 14:00:00 11,7 9,1 31 17 29 16 SSE 1023,3 16
15.11.2018 13:00:00 11,9 9,2 29 16 29 16 SSE 1023,4 15
15.11.2018 12:00:00 11,9 9,4 31 17 40 21 SSE 1023,3 25
15.11.2018 11:00:00 11,9 9,4 31 17 32 18 S 1023,5 17
15.11.2018 10:00:00 11,9 9,3 35 19 32 18 S 1023,6 18
15.11.2018 09:00:00 11,8 9,7 31 17 29 16 S 1023,3 13
15.11.2018 08:00:00 11,7 9,8 29 16 29 16 S 1023,1 12
15.11.2018 07:00:00 11,5 9,3 29 16 29 16 S 1022,9 15
15.11.2018 06:00:00 11,6 9,3 31 17 32 18 S 1022,7 17
15.11.2018 05:00:00 11,8 9,7 34 18 32 18 S 1022,5 14
15.11.2018 04:00:00 11,9 9,9 31 17 32 18 S 1022,4 15
15.11.2018 03:00:00 12,0 9,9 34 18 36 19 S 1022,5 15
15.11.2018 02:00:00 12,1 9,7 39 21 40 21 SSW 1022,3 15
15.11.2018 01:00:00 12,1 9,6 44 24 43 23 SSW 1022,1 17
15.11.2018 00:00:00 12,1 9,6 42 23 47 25 SSW 1022,0 15
14.11.2018 23:00:00 12,2 9,5 44 24 47 25 SSW 1021,8 14
14.11.2018 22:00:00 12,3 9,6 44 24 50 27 SSW 1021,7 15
14.11.2018 21:00:00 12,4 9,7 44 24 47 25 SSW 1021,7 14
14.11.2018 20:00:00 12,5 10,0 44 24 50 27 SSW 1021,6 13
14.11.2018 19:00:00 12,4 10,1 46 25 50 27 SSW 1021,2 13
14.11.2018 18:00:00 12,6 10,2 46 25 50 27 SSW 1021,1 13
14.11.2018 17:00:00 12,6 10,4 50 27 61 33 SSW 1021,0 12
14.11.2018 16:00:00 12,6 10,5 50 27 50 27 S 1020,9 11
14.11.2018 15:00:00 12,7 10,4 44 24 50 27 SSW 1020,7 13
14.11.2018 14:00:00 12,7 10,6 50 27 50 27 S 1020,7 12
14.11.2018 13:00:00 12,7 10,6 48 26 47 25 S 1021,5 10
14.11.2018 12:00:00 12,7 10,4 44 24 47 25 SSW 1021,7 10

tt = Température de l'air
td = dewpoint
ff = Vitesse du vent
fx = gusts
dd = Direction du vent
ppp = reduced air pressure
vv = visibility

stations d'obs. à proximité